Voltar ao catálogo

ZHUHAI-1 OHS-02

AtivoCiênciaSSO
NORAD 43441·PAYLOAD·🇨🇳 China

Lançado Apr 26, 2018 de Jiuquan Satellite Launch Center

Loading…

Próximas Passagens (próximas 24 horas)

TLE

AtualizadoSource: Space-Track

Época: Sep 14, 2026, 15:09 UTC

1 43441U 18040C   26257.63164215  .00004885  00000-0  18705-3 0  9998
2 43441  97.0341 276.6374 0007092 272.9304  87.1124 15.26956334127920

Acompanhe ZHUHAI-1 OHS-02 em tempo real com AllMySat

Download on the App Store